Weather History for Tucumcari, NM

Change the Weather History Date:

Monday, October 28, 2013

  Actual Average Record
Temperature  
Mean Temperature 65 °F -  
Max Temperature 79 °F 69 °F 84 °F (1943)
Min Temperature 52 °F 39 °F 17 °F (1925)
Growing Degree Days 15 (Base 50)    
Moisture  
Dew Point 38 °F    
Average Humidity 42    
Maximum Humidity 61    
Minimum Humidity 19    
Precipitation  
Precipitation 0.00 in - - ()
Sea Level Pressure  
Sea Level Pressure 29.80 in    
Wind  
Wind Speed 12 mph (SW)    
Max Wind Speed 22 mph    
Max Gust Speed 29 mph    
Visibility 10 miles    
Events      
Averages and records for this station are not official NWS values.
T = Trace of Precipitation, MM = Missing Value Source: NWS Daily Summary

Daily Weather History Graph

Daily Weather History Graph

Search for Another Location

Airport:

Trip Planner

Search our weather history database for the weather conditions in past years. The results will help you decide how hot, cold, wet, or windy it might be!

Date:

Astronomy

Oct. 28, 2013 Rise Set
Actual Time 7:12 AM MDT 6:03 PM MDT
Civil Twilight 6:46 AM MDT 6:29 PM MDT
Nautical Twilight 6:16 AM MDT 6:59 PM MDT
Astronomical Twilight 5:46 AM MDT 7:28 PM MDT
Moon 1:20 AM MDT 2:35 PM MDT
Length of Visible Light 11h 43m
Length of Day
10h 51m
Waning Crescent, 33% of the Moon is Illuminated
Oct 28
Waning Crescent
Nov 3
New
Nov 9
First Quarter
Nov 17
Full
Nov 25
Last Quarter

Hourly Weather History & Observations

Time (MDT) Temp. Dew Point Humidity Pressure Visibility Wind Dir Wind Speed Gust Speed Precip Events Conditions
12:53 AM 57.0 °F 37.0 °F 47% 29.81 in 10.0 mi SW 18.4 mph - N/A   Clear
1:53 AM 57.0 °F 36.0 °F 45% 29.80 in 10.0 mi SW 16.1 mph - N/A   Clear
2:53 AM 57.0 °F 37.0 °F 47% 29.80 in 10.0 mi SW 18.4 mph - N/A   Clear
3:53 AM 54.0 °F 37.0 °F 53% 29.80 in 10.0 mi South 8.1 mph - N/A   Clear
4:53 AM 54.0 °F 37.9 °F 55% 29.80 in 10.0 mi SSW 8.1 mph - N/A   Clear
5:53 AM 53.1 °F 39.0 °F 59% 29.81 in 10.0 mi Variable 4.6 mph - N/A   Clear
6:53 AM 52.0 °F 39.0 °F 61% 29.83 in 10.0 mi SW 11.5 mph - N/A   Clear
7:53 AM 53.1 °F 39.0 °F 59% 29.85 in 10.0 mi WSW 9.2 mph - N/A   Clear
8:53 AM 57.0 °F 39.9 °F 53% 29.87 in 10.0 mi WSW 6.9 mph - N/A   Clear
9:53 AM 63.0 °F 42.1 °F 46% 29.86 in 10.0 mi SSW 13.8 mph - N/A   Clear
10:53 AM 68.0 °F 43.0 °F 40% 29.84 in 10.0 mi SSW 12.7 mph - N/A   Clear
11:53 AM 70.0 °F 45.0 °F 41% 29.81 in 10.0 mi WSW 17.3 mph 25.3 mph N/A   Clear
12:53 PM 73.9 °F 45.0 °F 35% 29.78 in 10.0 mi SW 11.5 mph - N/A   Clear
1:53 PM 75.9 °F 42.1 °F 30% 29.74 in 10.0 mi SSW 17.3 mph - N/A   Clear
2:53 PM 77.0 °F 39.0 °F 25% 29.72 in 10.0 mi SSW 13.8 mph - N/A   Clear
3:53 PM 78.1 °F 33.1 °F 19% 29.71 in 10.0 mi SSW 21.9 mph 28.8 mph N/A   Clear
4:53 PM 77.0 °F 33.1 °F 20% 29.72 in 10.0 mi SW 16.1 mph 24.2 mph N/A   Clear
5:53 PM 72.0 °F 33.1 °F 24% 29.75 in 10.0 mi SSW 10.4 mph - N/A   Clear
6:53 PM 66.0 °F 35.1 °F 32% 29.79 in 10.0 mi Calm Calm - N/A   Clear
7:53 PM 64.0 °F 36.0 °F 35% 29.81 in 10.0 mi WSW 5.8 mph - N/A   Clear
8:53 PM 57.9 °F 36.0 °F 44% 29.83 in 10.0 mi SW 8.1 mph - N/A   Clear
9:53 PM 59.0 °F 37.0 °F 44% 29.83 in 10.0 mi WSW 5.8 mph - N/A   Clear
10:53 PM 57.0 °F 36.0 °F 45% 29.82 in 10.0 mi Calm Calm - N/A   Clear
11:53 PM 54.0 °F 35.1 °F 49% 29.82 in 10.0 mi Calm Calm - N/A   Clear